Flag for Germany Weather past 2 weeks in Neunkirchen (Saar), Saarland, Germany

Now
64 °F

Clear.


Feels Like: 64 °F
Forecast: 54 / 70 °F
Wind: 9 mph from Southwest

Location: Saarbruecken / Ensheim

Current Time: Jun 3, 2015 at 1:59:50 AM

Latest Report: Jun 3, 2015 at 1:20 AM


Visibility: 10 mi

Pressure: 30.07 "Hg

Humidity: 56%

Dew point: 48 °F

Location of Neunkirchen (Saar)Location

Historic Weather in Neunkirchen (Saar) — Graph

°F

Neunkirchen (Saar) temperature yesterday

Maximum temperature yesterday: 73 °F (at 5:20 PM)
Minimum temperature yesterday: 48 °F (at 12:20 AM)
Average temperature yesterday: 62 °F

Past Weeks' High & Low Weather Summary

 TemperatureHumidityPressure
High73 °F (Jun 2, 5:20 PM)100% (May 21, 5:20 AM)30.33 "Hg (May 21, 5:20 AM)
Low37 °F (May 21, 4:20 AM)33% (Jun 2, 6:50 PM)29.74 "Hg (May 19, 12:20 AM)
Average55 °F67%30.05 "Hg
* Reported May 19 12:20 AM — Jun 3 12:20 AM, Neunkirchen (Saar), Weather by CustomWeather, © 2015

Note: Actual official high and low records may vary slightly from our data, if they occured in-between our weather recording intervals... More about our weather records

Advertising

Neunkirchen (Saar) weather history for previous 24 hours

 ConditionsComfort  
Time TempWeatherWind HumidityBarometerVisibility
12:20 AM
Wed, Jun 3
64 °FClear.10 mph56%30.07 "Hg10 mi
11:20 PM
Tue, Jun 2
66 °FClear.8 mph52%30.07 "Hg10 mi
10:50 PM66 °FClear.9 mph52%30.07 "Hg10 mi
10:20 PM68 °FSunny.10 mph49%30.07 "Hg10 mi
9:50 PM68 °FSunny.9 mph49%30.04 "Hg10 mi
9:20 PM68 °FSunny.9 mph49%30.04 "Hg10 mi
8:50 PM70 °FSunny.7 mph46%30.04 "Hg10 mi
8:20 PM72 °FSunny.9 mph41%30.04 "Hg10 mi
7:50 PM72 °FSunny.13 mph41%30.04 "Hg10 mi
7:20 PM73 °FSunny.14 mph36%30.04 "Hg10 mi
6:50 PM73 °FPassing clouds.15 mph33%30.04 "HgN/A
6:20 PM73 °FPassing clouds.13 mph36%30.04 "HgN/A
5:50 PM73 °FPassing clouds.17 mph38%30.04 "HgN/A
5:20 PM73 °FScattered clouds.20 mph38%30.04 "HgN/A
4:50 PM72 °FScattered clouds.18 mph44%30.04 "HgN/A
4:20 PM72 °FScattered clouds.17 mph41%30.04 "HgN/A
3:50 PM72 °FPassing clouds.20 mph41%30.04 "HgN/A
3:20 PM72 °FScattered clouds.20 mph38%30.04 "HgN/A
2:50 PM72 °FScattered clouds.16 mph44%30.04 "HgN/A
2:20 PM70 °FScattered clouds.17 mph46%30.04 "HgN/A
1:50 PM70 °FScattered clouds.18 mph53%30.04 "HgN/A
1:20 PM66 °FPartly sunny.18 mph52%30.04 "HgN/A
12:50 PM64 °FPartly sunny.16 mph56%30.07 "HgN/A
12:20 PM63 °FPartly sunny.16 mph59%30.07 "HgN/A
11:50 AM63 °FPartly sunny.17 mph59%30.04 "HgN/A
11:20 AM63 °FPartly sunny.17 mph68%30.04 "HgN/A
10:50 AM61 °FBroken clouds.16 mph72%30.04 "HgN/A
10:20 AM59 °FBroken clouds.17 mph72%30.04 "HgN/A
9:50 AM59 °FBroken clouds.17 mph77%30.04 "HgN/A
9:20 AM59 °FBroken clouds.14 mph77%30.04 "HgN/A
8:50 AM57 °FPartly sunny.12 mph88%30.04 "HgN/A
8:20 AM55 °FPartly sunny.12 mph88%30.04 "HgN/A
7:50 AM54 °FPartly sunny.6 mph88%30.04 "HgN/A
7:20 AM52 °FCloudy.8 mph94%30.04 "HgN/A
6:50 AM52 °FMostly cloudy.9 mph94%30.01 "HgN/A
6:20 AM52 °FPartly cloudy.12 mph88%30.01 "HgN/A
5:20 AM52 °FPartly cloudy.10 mph94%30.01 "HgN/A
4:50 AM50 °FPartly cloudy.8 mph94%30.01 "HgN/A
4:20 AM50 °FClear.9 mph100%30.01 "Hg10 mi
3:50 AM52 °FPartly cloudy.9 mph94%30.01 "HgN/A
3:20 AM52 °FClear.10 mph94%30.01 "Hg10 mi
2:50 AM50 °FPassing clouds.10 mph94%30.01 "HgN/A
2:20 AM50 °FPassing clouds.7 mph94%30.04 "HgN/A
1:50 AM50 °FPassing clouds.6 mph94%30.04 "HgN/A
1:20 AM50 °FPassing clouds.6 mph94%30.04 "HgN/A
Weather by CustomWeather, © 2015

See weather overviewHow to use our weather pages